Tracking 22455 objects as of 9-Mar-2021
HD Live streaming from Space Station
objects crossing your sky now

CZ-4 DEB

Track CZ-4 DEB now!
10-day predictions


NORAD ID: 20900
Int'l Code: 1990-081BL
Perigee: 748.2 km
Apogee: 815.3 km
Inclination: 99.0 °
Period: 100.3 minutes
Semi major axis: 7152 km
RCS: 0.0514 m2 (small)
Launch date: September 3, 1990
Source: People's Republic of China (PRC)
Launch site: Taiyaun Space Center, China (TSC)

Note: This is SATELLITE DEBRIS
aabbcc
Your satellite tracking list
Your tracking list is empty




NASA's NSSDC Master Catalog

Two Line Element Set (TLE):
1 20900U 90081BL  21067.72230977  .00000761  00000-0  27989-3 0  9994
2 20900  99.0233 343.7424 0046896 192.3020 197.1721 14.35143041569101
Source of the keplerian elements: AFSPC